sat.trackr.live / text

‹ back to catalog

STARLINK-30923

NORAD 58381 · 2023-178H

PAYLOAD ACTIVE UNKNOWN

§ Identity

Operator
Country
US
Launch date
2023-11-20
Launch site
AFWTR
Launch vehicle
Mass (kg)
RCS (m²)

Purposes: comms

External: N2YO · Heavens-Above · Gunter

§ Orbital elements

Epoch: 2026-09-20T02:55:22.092672Z

Period
93.46 min
Inclination
53.1569°
Eccentricity
0.0003382
Mean motion
15.40787798 rev/d
Perigee alt
441.5 km
Apogee alt
446.1 km
Semi-major
6,821.9 km
B*
1.0741e-3
RAAN
172.7011°
Arg perigee
160.4362°
Mean anomaly
199.6774°
Rev number
15,966

§ Raw data

STARLINK-309231 58381U 23178H   26263.12178348  .00044514  00000+0  10741-2 0  99912 58381  53.1569 172.7011 0003382 160.4362 199.6774 15.40787798159669

JSON: /api/v1/satellites/58381 · /tle

For live sub-satellite position, see the globe view (requires WebGL).

§ Visibility from observer

Set your observer location to see the next 7 days of passes ≥ 10°. The values pass through the URL so the page stays shareable.

No JS? Fill the form by hand. The geolocation button needs JavaScript.